Location: Altenst�hlen
(53.5567°N, 8.9425°E)
Time: 07:44:57
(UTC+00:00)

STARLINK-41 - Pass Details

Date: 23 October 2019
Orbit: 549 x 551 km, 53.0° (Epoch: 19 November)

Event Time Altitude Azimuth Distance (km) Brightness Sun altitude
Rises 18:35:41 0° 282° (WNW) 2,721 8.7 -22.1°
Reaches altitude 10° 18:37:57 10° 279° (W) 1,826 7.4 -22.4°
Maximum altitude 18:42:01 57° 201° (SSW) 651 3.9 -23.0°
Enters shadow 18:42:05 57° 196° (SSW) 651 3.9 -23.0°
